User: anonymous   Login
Location: Unspecified
(0.0000°N, 0.0000°E)
Time: 17:16:22
(UTC+02:00)
Language:

Cosmos 1538 Rocket - Orbit

View from above orbital plane
View from above orbital plane
View from above satellite
View from above satellite

Ground track
Ground track

The orbit data is extracted from the following two-line orbital elements,

1 14760U 84019B   17086.86249855 -.00000070 +00000-0 -15132-4 0  9994
2 14760 074.0404 271.0334 0027564 152.5805 307.9831 14.35810399731699
Epoch (UTC): 27 March 2017 20:41:59
Eccentricity: 0.0027564
inclination: 74.0404°
perigee height: 752 km
apogee height: 792 km
right ascension of ascending node: 271.0334°
argument of perigee: 152.5805°
revolutions per day: 14.35810399
mean anomaly at epoch: 307.9831°
orbit number at epoch: 73169

The dashed part of the orbit path shows where the satellite is in the earth's shadow,  

DLR